Tracking 27428 objects as of 31-May-2023
HD Live streaming from Space Station
objects crossing your sky now

ELEKTRON 3

Track ELEKTRON 3 now!
10-day predictions
ELEKTRON 3 is classified as:


NORAD ID: 829
Int'l Code: 1964-038A
Perigee: 410.9 km
Apogee: 6,142.7 km
Inclination: 60.8 °
Period: 157.2 minutes
Semi major axis: 9647 km
RCS: 2.8255 m2 (large)
Launch date: July 10, 1964
Source: Commonwealth of Independent States (former USSR) (CIS)
Launch site: TYURATAM MISSILE AND SPACE COMPLEX (TTMTR)
Your satellite tracking list
Your tracking list is empty




NASA's NSSDC Master Catalog

Two Line Element Set (TLE):
1 00829U 64038A   23151.56459491  .00001150  00000-0  31136-3 0  9999
2 00829  60.8014 296.5493 2970493  52.0836 331.3305  9.16138494913181
Source of the keplerian elements: AFSPC